| time (UTC) | temp F | wind direction | speed MPH | gust MPH | rain 1hr in | rain 24hr in | rain mn in | humidity % | barometer mb |
| 20260902154054 | 90 | 255 | 9.0 | 20.0 | 0.00 | 0.00 | 0.00 | 70 | 1016.3 |
| 20260902153554 | 90 | 219 | 10.0 | 20.0 | 0.00 | 0.00 | 0.00 | 71 | 1016.2 |
| 20260902153101 | 90 | 207 | 8.0 | 16.0 | 0.00 | 0.00 | 0.00 | 72 | 1016.1 |
| 20260902152553 | 89 | 194 | 8.0 | 18.0 | 0.00 | 0.00 | 0.00 | 74 | 1016.1 |
| 20260902152058 | 89 | 244 | 9.0 | 18.0 | 0.00 | 0.00 | 0.00 | 74 | 1016.0 |
| 20260902151603 | 88 | 225 | 11.0 | 18.0 | 0.00 | 0.00 | 0.00 | 75 | 1016.2 |
| 20260902151055 | 87 | 251 | 8.0 | 18.0 | 0.00 | 0.00 | 0.00 | 76 | 1016.2 |
| 20260902150557 | 87 | 261 | 12.0 | 19.0 | 0.00 | 0.00 | 0.00 | 76 | 1016.2 |
| 20260902150106 | 87 | 265 | 8.0 | 19.0 | 0.00 | 0.00 | 0.00 | 77 | 1016.3 |
| 20260902145554 | 87 | 261 | 9.0 | 20.0 | 0.00 | 0.00 | 0.00 | 78 | 1016.2 |
| 20260902145054 | 87 | 213 | 10.0 | 20.0 | 0.00 | 0.00 | 0.00 | 78 | 1016.1 |
| 20260902144602 | 86 | 219 | 9.0 | 20.0 | 0.00 | 0.00 | 0.00 | 79 | 1016.2 |
| 20260902144054 | 86 | 245 | 9.0 | 20.0 | 0.00 | 0.00 | 0.00 | 80 | 1016.2 |
| 20260902143555 | 86 | 247 | 9.0 | 19.0 | 0.00 | 0.00 | 0.00 | 80 | 1016.2 |
| 20260902143104 | 85 | 249 | 10.0 | 18.0 | 0.00 | 0.00 | 0.00 | 81 | 1016.2 |
| 20260902142555 | 85 | 226 | 8.0 | 17.0 | 0.00 | 0.00 | 0.00 | 82 | 1016.2 |
| 20260902142055 | 85 | 259 | 9.0 | 17.0 | 0.00 | 0.00 | 0.00 | 83 | 1016.2 |
| 20260902141604 | 84 | 209 | 5.0 | 17.0 | 0.00 | 0.00 | 0.00 | 85 | 1016.2 |
| 20260902141054 | 83 | 230 | 7.0 | 17.0 | 0.00 | 0.00 | 0.00 | 85 | 1016.2 |
| 20260902140554 | 83 | 246 | 6.0 | 16.0 | 0.00 | 0.00 | 0.00 | 86 | 1016.2 |
| 20260902135555 | 82 | 226 | 6.0 | 14.0 | 0.00 | 0.00 | 0.00 | 88 | 1016.3 |
| 20260902135055 | 82 | 250 | 8.0 | 13.0 | 0.00 | 0.00 | 0.00 | 89 | 1016.2 |
| 20260902134615 | 82 | 269 | 6.0 | 13.0 | 0.00 | 0.00 | 0.00 | 90 | 1016.2 |
| 20260902134053 | 81 | 225 | 5.0 | 12.0 | 0.00 | 0.00 | 0.00 | 90 | 1016.2 |
| 20260902133554 | 81 | 261 | 6.0 | 12.0 | 0.00 | 0.00 | 0.00 | 91 | 1016.1 |
| 20260902133113 | 80 | 235 | 5.0 | 12.0 | 0.00 | 0.00 | 0.00 | 91 | 1016.1 |
| 20260902132553 | 80 | 245 | 4.0 | 10.0 | 0.00 | 0.00 | 0.00 | 92 | 1016.0 |
| 20260902132053 | 80 | 233 | 4.0 | 10.0 | 0.00 | 0.00 | 0.00 | 92 | 1015.8 |
| 20260902131601 | 79 | 246 | 3.0 | 9.0 | 0.00 | 0.00 | 0.00 | 92 | 1015.5 |
| 20260902131053 | 79 | 248 | 4.0 | 8.0 | 0.00 | 0.00 | 0.00 | 92 | 1015.5 |
| 20260902130553 | 79 | 221 | 3.0 | 8.0 | 0.00 | 0.00 | 0.00 | 92 | 1015.6 |
| 20260902125554 | 79 | 221 | 2.0 | 8.0 | 0.00 | 0.00 | 0.00 | 92 | 1015.5 |
| 20260902125054 | 79 | 233 | 2.0 | 7.0 | 0.00 | 0.00 | 0.00 | 92 | 1015.4 |
| 20260902124602 | 79 | 215 | 0.0 | 7.0 | 0.00 | 0.00 | 0.00 | 92 | 1015.3 |
| 20260902124055 | 78 | 227 | 1.0 | 5.0 | 0.00 | 0.00 | 0.00 | 92 | 1015.3 |
| 20260902123553 | 78 | 242 | 1.0 | 7.0 | 0.00 | 0.00 | 0.00 | 92 | 1015.3 |
| 20260902123120 | 78 | 225 | 1.0 | 7.0 | 0.00 | 0.00 | 0.00 | 92 | 1015.1 |
| 20260902122553 | 78 | 252 | 1.0 | 5.0 | 0.00 | 0.00 | 0.00 | 92 | 1015.0 |
| 20260902122054 | 78 | 0 | 0.0 | 4.0 | 0.00 | 0.00 | 0.00 | 92 | 1015.0 |
| 20260902121559 | 78 | 248 | 0.0 | 4.0 | 0.00 | 0.00 | 0.00 | 91 | 1014.9 |
| 20260902121054 | 78 | 248 | 1.0 | 3.0 | 0.00 | 0.00 | 0.00 | 91 | 1014.9 |
| 20260902120554 | 78 | 0 | 0.0 | 0.0 | 0.00 | 0.00 | 0.00 | 91 | 1015.0 |
| 20260902115553 | 78 | 0 | 0.0 | 0.0 | 0.00 | 0.00 | 0.00 | 91 | 1015.0 |
| 20260902115053 | 78 | 0 | 0.0 | 0.0 | 0.00 | 0.00 | 0.00 | 91 | 1015.0 |
| 20260902114604 | 78 | 0 | 0.0 | 0.0 | 0.00 | 0.00 | 0.00 | 91 | 1015.0 |
| 20260902114054 | 78 | 0 | 0.0 | 0.0 | 0.00 | 0.00 | 0.00 | 91 | 1015.0 |
| 20260902113552 | 78 | 0 | 0.0 | 0.0 | 0.00 | 0.00 | 0.00 | 91 | 1015.0 |
| 20260902113109 | 78 | 0 | 0.0 | 1.0 | 0.00 | 0.00 | 0.00 | 91 | 1014.9 |
| 20260902112553 | 79 | 0 | 0.0 | 1.0 | 0.00 | 0.00 | 0.00 | 91 | 1014.9 |
| 20260902112053 | 79 | 0 | 0.0 | 2.0 | 0.00 | 0.00 | 0.00 | 91 | 1015.0 |
| 20260902111556 | 79 | 0 | 0.0 | 2.0 | 0.00 | 0.00 | 0.00 | 91 | 1015.1 |
| 20260902111054 | 79 | 0 | 0.0 | 4.0 | 0.00 | 0.00 | 0.00 | 91 | 1015.0 |
| 20260902110556 | 79 | 0 | 0.0 | 4.0 | 0.00 | 0.00 | 0.00 | 91 | 1014.9 |
| 20260902105557 | 79 | 0 | 0.0 | 5.0 | 0.00 | 0.00 | 0.00 | 91 | 1014.8 |
| 20260902105053 | 79 | 0 | 0.0 | 5.0 | 0.00 | 0.00 | 0.00 | 91 | 1014.8 |
| 20260902104602 | 79 | 225 | 1.0 | 6.0 | 0.00 | 0.00 | 0.00 | 91 | 1014.8 |
| 20260902104053 | 79 | 217 | 2.0 | 6.0 | 0.00 | 0.00 | 0.00 | 91 | 1014.8 |
| 20260902103552 | 79 | 213 | 3.0 | 8.0 | 0.00 | 0.00 | 0.00 | 91 | 1014.7 |
| 20260902103100 | 79 | 209 | 1.0 | 8.0 | 0.00 | 0.00 | 0.00 | 91 | 1014.7 |
| 20260902102555 | 79 | 222 | 3.0 | 7.0 | 0.00 | 0.00 | 0.00 | 91 | 1014.7 |
| 20260902102054 | 79 | 224 | 2.0 | 7.0 | 0.00 | 0.00 | 0.00 | 90 | 1014.7 |
| 20260902101557 | 79 | 220 | 3.0 | 7.0 | 0.00 | 0.00 | 0.00 | 90 | 1014.7 |
| 20260902101051 | 79 | 220 | 2.0 | 7.0 | 0.00 | 0.00 | 0.00 | 90 | 1014.6 |
| 20260902100553 | 79 | 215 | 3.0 | 9.0 | 0.00 | 0.00 | 0.00 | 90 | 1014.6 |
| 20260902100056 | 79 | 220 | 3.0 | 9.0 | 0.00 | 0.00 | 0.00 | 90 | 1014.5 |
| 20260902095553 | 79 | 221 | 3.0 | 9.0 | 0.00 | 0.00 | 0.00 | 90 | 1014.6 |
| 20260902095056 | 79 | 232 | 4.0 | 9.0 | 0.00 | 0.00 | 0.00 | 90 | 1014.4 |
| 20260902094601 | 79 | 225 | 3.0 | 9.0 | 0.00 | 0.00 | 0.00 | 90 | 1014.3 |
| 20260902094053 | 79 | 221 | 4.0 | 9.0 | 0.00 | 0.00 | 0.00 | 90 | 1014.4 |
| 20260902093553 | 79 | 219 | 4.0 | 9.0 | 0.00 | 0.00 | 0.00 | 90 | 1014.3 |
| 20260902093057 | 79 | 218 | 3.0 | 7.0 | 0.00 | 0.00 | 0.00 | 90 | 1014.3 |
| 20260902092554 | 79 | 227 | 3.0 | 7.0 | 0.00 | 0.00 | 0.00 | 90 | 1014.4 |
| 20260902092054 | 79 | 223 | 2.0 | 8.0 | 0.00 | 0.00 | 0.00 | 90 | 1014.4 |
| 20260902091605 | 79 | 221 | 2.0 | 8.0 | 0.00 | 0.00 | 0.00 | 90 | 1014.5 |
| 20260902091053 | 79 | 236 | 3.0 | 7.0 | 0.00 | 0.00 | 0.00 | 90 | 1014.6 |
| 20260902090556 | 79 | 221 | 2.0 | 8.0 | 0.00 | 0.00 | 0.00 | 90 | 1014.6 |
| 20260902085551 | 79 | 223 | 2.0 | 8.0 | 0.00 | 0.00 | 0.00 | 89 | 1014.7 |
| 20260902085052 | 79 | 222 | 2.0 | 7.0 | 0.00 | 0.00 | 0.00 | 90 | 1014.6 |
| 20260902084609 | 79 | 221 | 3.0 | 7.0 | 0.00 | 0.00 | 0.00 | 89 | 1014.6 |
| 20260902084054 | 79 | 206 | 2.0 | 8.0 | 0.00 | 0.00 | 0.00 | 89 | 1014.6 |
| 20260902083554 | 79 | 246 | 1.0 | 8.0 | 0.00 | 0.00 | 0.00 | 89 | 1014.6 |
| 20260902083102 | 79 | 217 | 2.0 | 8.0 | 0.00 | 0.00 | 0.00 | 89 | 1014.6 |
| 20260902082553 | 79 | 221 | 2.0 | 8.0 | 0.00 | 0.00 | 0.00 | 89 | 1014.5 |
| 20260902082054 | 79 | 211 | 2.0 | 8.0 | 0.00 | 0.00 | 0.00 | 89 | 1014.6 |
| 20260902081607 | 79 | 219 | 2.0 | 8.0 | 0.00 | 0.00 | 0.00 | 89 | 1014.6 |
| 20260902081053 | 79 | 0 | 2.0 | 7.0 | 0.00 | 0.00 | 0.00 | 89 | 1014.6 |
| 20260902080553 | 79 | 0 | 2.0 | 5.0 | 0.00 | 0.00 | 0.00 | 89 | 1014.8 |
| 20260902080059 | 79 | 219 | 1.0 | 6.0 | 0.00 | 0.00 | 0.00 | 89 | 1014.7 |
| 20260902075553 | 79 | 216 | 2.0 | 7.0 | 0.00 | 0.00 | 0.00 | 89 | 1014.8 |
| 20260902075057 | 79 | 222 | 3.0 | 8.0 | 0.00 | 0.00 | 0.00 | 89 | 1014.7 |
| 20260902074617 | 79 | 227 | 3.0 | 8.0 | 0.00 | 0.00 | 0.00 | 89 | 1014.8 |
| 20260902074054 | 79 | 221 | 2.0 | 8.0 | 0.00 | 0.00 | 0.00 | 88 | 1014.8 |
| 20260902073553 | 79 | 227 | 2.0 | 8.0 | 0.00 | 0.00 | 0.00 | 88 | 1014.9 |
| 20260902073101 | 79 | 223 | 2.0 | 6.0 | 0.00 | 0.00 | 0.00 | 88 | 1014.9 |
| 20260902072557 | 79 | 225 | 2.0 | 6.0 | 0.00 | 0.00 | 0.00 | 88 | 1014.9 |
| 20260902072054 | 79 | 229 | 0.0 | 4.0 | 0.00 | 0.00 | 0.00 | 88 | 1015.0 |
| 20260902071602 | 79 | 0 | 0.0 | 4.0 | 0.00 | 0.00 | 0.00 | 87 | 1014.9 |
| 20260902071054 | 79 | 0 | 1.0 | 3.0 | 0.00 | 0.00 | 0.00 | 87 | 1015.0 |
| 20260902070553 | 79 | 0 | 1.0 | 3.0 | 0.00 | 0.00 | 0.00 | 87 | 1015.0 |
| 20260902070101 | 79 | 211 | 0.0 | 2.0 | 0.00 | 0.00 | 0.00 | 86 | 1015.0 |
| 20260902065555 | 79 | 0 | 0.0 | 3.0 | 0.00 | 0.00 | 0.00 | 86 | 1015.0 |
| 20260902065052 | 79 | 209 | 0.0 | 3.0 | 0.00 | 0.00 | 0.00 | 86 | 1015.0 |
| 20260902064557 | 79 | 0 | 0.0 | 0.0 | 0.00 | 0.00 | 0.00 | 85 | 1015.2 |
| 20260902064054 | 79 | 0 | 0.0 | 0.0 | 0.00 | 0.00 | 0.00 | 85 | 1015.2 |
| 20260902063551 | 79 | 0 | 0.0 | 2.0 | 0.00 | 0.00 | 0.00 | 85 | 1015.1 |
| 20260902063116 | 79 | 0 | 0.0 | 2.0 | 0.00 | 0.00 | 0.00 | 85 | 1015.2 |
| 20260902062551 | 79 | 0 | 0.0 | 2.0 | 0.00 | 0.00 | 0.00 | 85 | 1015.2 |
| 20260902062055 | 79 | 0 | 0.0 | 2.0 | 0.00 | 0.00 | 0.00 | 85 | 1015.0 |
| 20260902061056 | 80 | 213 | 0.0 | 5.0 | 0.00 | 0.00 | 0.00 | 85 | 1015.0 |
| 20260902060556 | 80 | 213 | 1.0 | 5.0 | 0.00 | 0.00 | 0.00 | 85 | 1014.8 |
| 20260902060108 | 80 | 212 | 3.0 | 5.0 | 0.00 | 0.00 | 0.00 | 85 | 1014.7 |
| 20260902055551 | 80 | 213 | 2.0 | 4.0 | 0.00 | 0.00 | 0.00 | 85 | 1014.6 |
| 20260902055051 | 80 | 203 | 1.0 | 4.0 | 0.00 | 0.00 | 0.00 | 85 | 1014.8 |
| 20260902054610 | 80 | 203 | 1.0 | 4.0 | 0.00 | 0.00 | 0.00 | 84 | 1014.7 |
| 20260902054052 | 80 | 203 | 2.0 | 4.0 | 0.00 | 0.00 | 0.00 | 84 | 1014.8 |
| 20260902053555 | 80 | 202 | 2.0 | 4.0 | 0.00 | 0.00 | 0.00 | 84 | 1014.9 |
| 20260902053109 | 80 | 202 | 2.0 | 5.0 | 0.00 | 0.00 | 0.00 | 84 | 1014.8 |
| 20260902052555 | 80 | 202 | 3.0 | 5.0 | 0.00 | 0.00 | 0.00 | 84 | 1015.0 |
| 20260902052054 | 80 | 161 | 3.0 | 5.0 | 0.00 | 0.00 | 0.00 | 84 | 1015.0 |
| 20260902051559 | 80 | 160 | 0.0 | 0.0 | 0.00 | 0.00 | 0.00 | 83 | 1015.0 |
| 20260902051051 | 80 | 0 | 0.0 | 0.0 | 0.00 | 0.00 | 0.00 | 82 | 1015.0 |
| 20260902050552 | 80 | 0 | 0.0 | 0.0 | 0.00 | 0.00 | 0.00 | 82 | 1015.0 |
| 20260902050103 | 81 | 0 | 0.0 | 0.0 | 0.00 | 0.00 | 0.00 | 81 | 1014.9 |
| 20260902045551 | 81 | 0 | 0.0 | 0.0 | 0.00 | 0.00 | 0.00 | 81 | 1014.9 |
| 20260902045051 | 81 | 0 | 0.0 | 0.0 | 0.00 | 0.00 | 0.00 | 81 | 1015.0 |
| 20260902044607 | 81 | 0 | 0.0 | 0.0 | 0.00 | 0.00 | 0.00 | 80 | 1015.0 |
| 20260902044055 | 81 | 0 | 0.0 | 0.0 | 0.00 | 0.00 | 0.00 | 80 | 1015.0 |
| 20260902043554 | 82 | 0 | 0.0 | 0.0 | 0.00 | 0.00 | 0.00 | 80 | 1015.0 |
| 20260902043111 | 82 | 0 | 0.0 | 2.0 | 0.00 | 0.00 | 0.00 | 80 | 1015.0 |
| 20260902042559 | 82 | 0 | 0.0 | 2.0 | 0.00 | 0.00 | 0.00 | 80 | 1014.8 |
| 20260902042055 | 82 | 0 | 0.0 | 6.0 | 0.00 | 0.00 | 0.00 | 79 | 1014.9 |
| 20260902041607 | 82 | 160 | 1.0 | 6.0 | 0.00 | 0.00 | 0.00 | 79 | 1014.7 |
| 20260902041051 | 83 | 158 | 0.0 | 2.0 | 0.00 | 0.00 | 0.00 | 78 | 1014.7 |
| 20260902040551 | 83 | 0 | 0.0 | 0.0 | 0.00 | 0.00 | 0.00 | 77 | 1014.7 |
| 20260902040108 | 83 | 0 | 0.0 | 0.0 | 0.00 | 0.00 | 0.00 | 77 | 1014.7 |
| 20260902035552 | 83 | 0 | 0.0 | 0.0 | 0.00 | 0.00 | 0.00 | 77 | 1014.7 |
| 20260902035054 | 83 | 0 | 0.0 | 0.0 | 0.00 | 0.00 | 0.00 | 77 | 1014.7 |
| 20260902034614 | 84 | 0 | 0.0 | 2.0 | 0.00 | 0.00 | 0.00 | 77 | 1014.8 |
| 20260902034053 | 84 | 0 | 0.0 | 3.0 | 0.00 | 0.00 | 0.00 | 76 | 1014.7 |
| 20260902033553 | 84 | 177 | 1.0 | 5.0 | 0.00 | 0.00 | 0.00 | 76 | 1014.6 |
| 20260902033101 | 84 | 0 | 2.0 | 5.0 | 0.00 | 0.00 | 0.00 | 76 | 1014.6 |
| 20260902032553 | 84 | 175 | 2.0 | 5.0 | 0.00 | 0.00 | 0.00 | 76 | 1014.5 |
| 20260902032051 | 84 | 189 | 2.0 | 5.0 | 0.00 | 0.00 | 0.00 | 76 | 1014.6 |
| 20260902031605 | 85 | 0 | 0.0 | 3.0 | 0.00 | 0.00 | 0.00 | 76 | 1014.7 |
| 20260902031057 | 85 | 0 | 0.0 | 5.0 | 0.00 | 0.00 | 0.00 | 76 | 1014.7 |
| 20260902030557 | 85 | 186 | 2.0 | 5.0 | 0.00 | 0.00 | 0.00 | 75 | 1014.5 |
| 20260902030100 | 85 | 0 | 0.0 | 5.0 | 0.00 | 0.00 | 0.00 | 75 | 1014.5 |
| 20260902025553 | 85 | 0 | 0.0 | 5.0 | 0.00 | 0.00 | 0.00 | 75 | 1014.5 |
| 20260902025055 | 85 | 150 | 0.0 | 5.0 | 0.00 | 0.00 | 0.00 | 75 | 1014.4 |
| 20260902024558 | 86 | 151 | 1.0 | 4.0 | 0.00 | 0.00 | 0.00 | 74 | 1014.3 |
| 20260902024053 | 86 | 148 | 0.0 | 4.0 | 0.00 | 0.00 | 0.00 | 74 | 1014.2 |
| 20260902023551 | 86 | 0 | 1.0 | 5.0 | 0.00 | 0.00 | 0.00 | 74 | 1014.1 |
| 20260902023103 | 86 | 175 | 2.0 | 6.0 | 0.00 | 0.00 | 0.00 | 74 | 1014.0 |
| 20260902022555 | 86 | 0 | 0.0 | 6.0 | 0.00 | 0.00 | 0.00 | 73 | 1014.0 |
| 20260902022053 | 86 | 0 | 2.0 | 9.0 | 0.00 | 0.00 | 0.00 | 73 | 1013.9 |
| 20260902021608 | 87 | 144 | 3.0 | 9.0 | 0.00 | 0.00 | 0.00 | 72 | 1013.8 |
| 20260902021053 | 87 | 171 | 2.0 | 7.0 | 0.00 | 0.00 | 0.00 | 72 | 1013.9 |
| 20260902020553 | 87 | 155 | 2.0 | 7.0 | 0.00 | 0.00 | 0.00 | 71 | 1013.8 |
| 20260902020056 | 87 | 138 | 2.0 | 9.0 | 0.00 | 0.00 | 0.00 | 70 | 1013.7 |
| 20260902015554 | 87 | 169 | 3.0 | 10.0 | 0.00 | 0.00 | 0.00 | 69 | 1013.7 |
| 20260902015052 | 87 | 146 | 3.0 | 10.0 | 0.00 | 0.00 | 0.00 | 68 | 1013.7 |
| 20260902014602 | 87 | 110 | 1.0 | 6.0 | 0.00 | 0.00 | 0.00 | 65 | 1013.6 |
| 20260902014051 | 88 | 0 | 0.0 | 0.0 | 0.00 | 0.00 | 0.00 | 64 | 1013.5 |
| 20260902013553 | 88 | 0 | 0.0 | 0.0 | 0.00 | 0.00 | 0.00 | 64 | 1013.3 |
| 20260902013101 | 89 | 0 | 0.0 | 0.0 | 0.00 | 0.00 | 0.00 | 64 | 1013.3 |
| 20260902012553 | 89 | 0 | 0.0 | 0.0 | 0.00 | 0.00 | 0.00 | 63 | 1013.3 |
| 20260902012053 | 90 | 0 | 0.0 | 0.0 | 0.00 | 0.00 | 0.00 | 63 | 1013.3 |
| 20260902011602 | 90 | 0 | 0.0 | 0.0 | 0.00 | 0.00 | 0.00 | 62 | 1013.2 |
| 20260902011053 | 90 | 0 | 0.0 | 0.0 | 0.00 | 0.00 | 0.00 | 62 | 1013.2 |
| 20260902010552 | 91 | 0 | 0.0 | 0.0 | 0.00 | 0.00 | 0.00 | 62 | 1013.2 |
| 20260902010059 | 91 | 0 | 0.0 | 0.0 | 0.00 | 0.00 | 0.00 | 62 | 1013.1 |
| 20260902005553 | 91 | 0 | 0.0 | 0.0 | 0.00 | 0.00 | 0.00 | 61 | 1013.1 |
| 20260902005055 | 91 | 0 | 0.0 | 0.0 | 0.00 | 0.00 | 0.00 | 61 | 1013.0 |
| 20260902004559 | 92 | 0 | 0.0 | 1.0 | 0.00 | 0.00 | 0.00 | 60 | 1012.9 |
| 20260902004053 | 92 | 0 | 0.0 | 2.0 | 0.00 | 0.00 | 0.00 | 60 | 1013.0 |
| 20260902003553 | 92 | 0 | 0.0 | 5.0 | 0.00 | 0.00 | 0.00 | 59 | 1013.0 |
| 20260902003134 | 92 | 142 | 0.0 | 5.0 | 0.00 | 0.00 | 0.00 | 58 | 1012.9 |
| 20260902002552 | 92 | 140 | 2.0 | 5.0 | 0.00 | 0.00 | 0.00 | 58 | 1012.9 |
| 20260902002052 | 93 | 0 | 0.0 | 4.0 | 0.00 | 0.00 | 0.00 | 58 | 1013.0 |
| 20260902001607 | 93 | 101 | 1.0 | 6.0 | 0.00 | 0.00 | 0.00 | 58 | 1012.9 |
| 20260902001052 | 93 | 0 | 1.0 | 6.0 | 0.00 | 0.00 | 0.00 | 58 | 1013.1 |
| 20260902000552 | 93 | 0 | 0.0 | 6.0 | 0.00 | 0.00 | 0.00 | 58 | 1013.0 |
| 20260902000059 | 93 | 0 | 0.0 | 7.0 | 0.00 | 0.00 | 0.00 | 58 | 1013.1 |
| 20260901235554 | 93 | 86 | 1.0 | 7.0 | 0.00 | 0.00 | 0.00 | 58 | 1013.0 |
| 20260901235054 | 93 | 72 | 3.0 | 7.0 | 0.00 | 0.00 | 0.00 | 58 | 1013.1 |
| 20260901234601 | 93 | 143 | 2.0 | 6.0 | 0.00 | 0.00 | 0.00 | 58 | 1013.2 |
| 20260901234054 | 93 | 0 | 2.0 | 7.0 | 0.00 | 0.00 | 0.00 | 58 | 1013.2 |
| 20260901233553 | 94 | 103 | 1.0 | 8.0 | 0.00 | 0.00 | 0.00 | 58 | 1013.2 |
| 20260901233059 | 94 | 128 | 2.0 | 10.0 | 0.00 | 0.00 | 0.00 | 58 | 1013.2 |
| 20260901232553 | 94 | 0 | 3.0 | 10.0 | 0.00 | 0.00 | 0.00 | 58 | 1013.1 |
| 20260901232053 | 94 | 123 | 4.0 | 10.0 | 0.00 | 0.00 | 0.00 | 58 | 1013.2 |
| 20260901231605 | 94 | 70 | 3.0 | 10.0 | 0.00 | 0.00 | 0.00 | 58 | 1013.1 |
| 20260901231053 | 94 | 103 | 3.0 | 9.0 | 0.00 | 0.00 | 0.00 | 58 | 1013.2 |
| 20260901230553 | 94 | 117 | 3.0 | 10.0 | 0.00 | 0.00 | 0.00 | 57 | 1013.2 |
| 20260901230056 | 95 | 0 | 2.0 | 10.0 | 0.00 | 0.00 | 0.00 | 57 | 1013.2 |
| 20260901225553 | 95 | 128 | 3.0 | 12.0 | 0.00 | 0.00 | 0.00 | 56 | 1013.1 |
| 20260901225053 | 96 | 128 | 4.0 | 12.0 | 0.00 | 0.00 | 0.00 | 56 | 1013.1 |
| 20260901224605 | 96 | 86 | 5.0 | 12.0 | 0.00 | 0.00 | 0.00 | 55 | 1013.0 |
| 20260901224052 | 96 | 74 | 3.0 | 10.0 | 0.00 | 0.00 | 0.00 | 56 | 1012.9 |
| 20260901223553 | 96 | 108 | 4.0 | 10.0 | 0.00 | 0.00 | 0.00 | 55 | 1012.9 |
| 20260901223104 | 96 | 79 | 3.0 | 11.0 | 0.00 | 0.00 | 0.00 | 55 | 1013.0 |
| 20260901222552 | 96 | 121 | 5.0 | 11.0 | 0.00 | 0.00 | 0.00 | 54 | 1013.0 |
| 20260901222052 | 96 | 85 | 3.0 | 13.0 | 0.00 | 0.00 | 0.00 | 54 | 1013.0 |
| 20260901221619 | 96 | 125 | 5.0 | 13.0 | 0.00 | 0.00 | 0.00 | 54 | 1012.9 |
| 20260901221053 | 96 | 65 | 5.0 | 13.0 | 0.00 | 0.00 | 0.00 | 55 | 1012.9 |
| 20260901220552 | 96 | 62 | 5.0 | 11.0 | 0.00 | 0.00 | 0.00 | 54 | 1013.0 |
| 20260901220100 | 96 | 127 | 4.0 | 12.0 | 0.00 | 0.00 | 0.00 | 54 | 1013.1 |
| 20260901215553 | 96 | 131 | 3.0 | 13.0 | 0.00 | 0.00 | 0.00 | 53 | 1013.2 |
| 20260901215053 | 96 | 85 | 4.0 | 13.0 | 0.00 | 0.00 | 0.00 | 54 | 1013.2 |
| 20260901214555 | 96 | 57 | 5.0 | 12.0 | 0.00 | 0.00 | 0.00 | 53 | 1013.2 |
| 20260901214052 | 96 | 90 | 5.0 | 12.0 | 0.00 | 0.00 | 0.00 | 53 | 1013.2 |
| 20260901213552 | 96 | 96 | 6.0 | 13.0 | 0.00 | 0.00 | 0.00 | 53 | 1013.2 |
| 20260901213059 | 97 | 107 | 6.0 | 13.0 | 0.00 | 0.00 | 0.00 | 52 | 1013.2 |
| 20260901212551 | 98 | 59 | 6.0 | 13.0 | 0.00 | 0.00 | 0.00 | 50 | 1013.2 |
| 20260901212052 | 98 | 102 | 4.0 | 10.0 | 0.00 | 0.00 | 0.00 | 50 | 1013.1 |
| 20260901211600 | 99 | 70 | 3.0 | 11.0 | 0.00 | 0.00 | 0.00 | 50 | 1013.1 |
| 20260901211052 | 99 | 96 | 2.0 | 11.0 | 0.00 | 0.00 | 0.00 | 50 | 1013.0 |
| 20260901210553 | 99 | 49 | 3.0 | 9.0 | 0.00 | 0.00 | 0.00 | 50 | 1013.2 |
| 20260901210127 | 99 | 51 | 3.0 | 10.0 | 0.00 | 0.00 | 0.00 | 50 | 1013.2 |
| 20260901205553 | 99 | 151 | 3.0 | 11.0 | 0.00 | 0.00 | 0.00 | 49 | 1013.3 |
| 20260901205052 | 99 | 107 | 3.0 | 11.0 | 0.00 | 0.00 | 0.00 | 49 | 1013.3 |
| 20260901204601 | 99 | 108 | 5.0 | 11.0 | 0.00 | 0.00 | 0.00 | 49 | 1013.4 |
| 20260901204052 | 98 | 192 | 2.0 | 8.0 | 0.00 | 0.00 | 0.00 | 51 | 1013.3 |
| 20260901203551 | 97 | 99 | 3.0 | 10.0 | 0.00 | 0.00 | 0.00 | 51 | 1013.6 |
| 20260901203102 | 97 | 101 | 2.0 | 12.0 | 0.00 | 0.00 | 0.00 | 51 | 1013.6 |
| 20260901202553 | 97 | 74 | 4.0 | 12.0 | 0.00 | 0.00 | 0.00 | 51 | 1013.7 |
| 20260901202056 | 98 | 42 | 6.0 | 12.0 | 0.00 | 0.00 | 0.00 | 50 | 1013.8 |
| 20260901201601 | 98 | 76 | 4.0 | 10.0 | 0.00 | 0.00 | 0.00 | 50 | 1013.7 |
| 20260901201054 | 98 | 252 | 3.0 | 8.0 | 0.00 | 0.00 | 0.00 | 49 | 1013.8 |
| 20260901200556 | 97 | 296 | 2.0 | 13.0 | 0.00 | 0.00 | 0.00 | 49 | 1013.9 |
| 20260901195552 | 97 | 74 | 4.0 | 13.0 | 0.00 | 0.00 | 0.00 | 50 | 1014.2 |
| 20260901195052 | 97 | 26 | 2.0 | 10.0 | 0.00 | 0.00 | 0.00 | 50 | 1014.1 |
| 20260901194606 | 97 | 134 | 4.0 | 10.0 | 0.00 | 0.00 | 0.00 | 51 | 1014.2 |
| 20260901194053 | 96 | 59 | 3.0 | 9.0 | 0.00 | 0.00 | 0.00 | 51 | 1014.3 |
| 20260901193557 | 96 | 144 | 3.0 | 8.0 | 0.00 | 0.00 | 0.00 | 54 | 1014.4 |
| 20260901193108 | 96 | 50 | 1.0 | 8.0 | 0.00 | 0.00 | 0.00 | 54 | 1014.4 |
| 20260901192552 | 96 | 193 | 3.0 | 10.0 | 0.00 | 0.00 | 0.00 | 56 | 1014.5 |
| 20260901192052 | 95 | 186 | 1.0 | 10.0 | 0.00 | 0.00 | 0.00 | 57 | 1014.5 |
| 20260901191615 | 95 | 171 | 2.0 | 9.0 | 0.00 | 0.00 | 0.00 | 58 | 1014.6 |
| 20260901191053 | 94 | 0 | 3.0 | 10.0 | 0.00 | 0.00 | 0.00 | 58 | 1014.7 |
| 20260901190552 | 94 | 171 | 5.0 | 10.0 | 0.00 | 0.00 | 0.00 | 59 | 1014.8 |
| 20260901190135 | 94 | 177 | 4.0 | 9.0 | 0.00 | 0.00 | 0.00 | 59 | 1014.9 |
| 20260901185553 | 94 | 113 | 4.0 | 9.0 | 0.00 | 0.00 | 0.00 | 59 | 1015.0 |
| 20260901185052 | 94 | 107 | 3.0 | 9.0 | 0.00 | 0.00 | 0.00 | 58 | 1015.0 |
| 20260901184602 | 94 | 123 | 3.0 | 7.0 | 0.00 | 0.00 | 0.00 | 58 | 1015.0 |
| 20260901184053 | 94 | 153 | 3.0 | 5.0 | 0.00 | 0.00 | 0.00 | 58 | 1015.1 |
| 20260901183553 | 94 | 57 | 1.0 | 9.0 | 0.00 | 0.00 | 0.00 | 59 | 1015.1 |
| 20260901183108 | 94 | 90 | 2.0 | 9.0 | 0.00 | 0.00 | 0.00 | 59 | 1015.2 |
| 20260901182552 | 94 | 74 | 2.0 | 7.0 | 0.00 | 0.00 | 0.00 | 59 | 1015.4 |
| 20260901182053 | 94 | 153 | 3.0 | 7.0 | 0.00 | 0.00 | 0.00 | 59 | 1015.4 |
| 20260901181601 | 94 | 65 | 2.0 | 8.0 | 0.00 | 0.00 | 0.00 | 60 | 1015.6 |
| 20260901181052 | 94 | 75 | 2.0 | 8.0 | 0.00 | 0.00 | 0.00 | 59 | 1015.7 |
| 20260901180552 | 93 | 100 | 1.0 | 8.0 | 0.00 | 0.00 | 0.00 | 61 | 1015.8 |
| 20260901175555 | 93 | 71 | 2.0 | 9.0 | 0.00 | 0.00 | 0.00 | 61 | 1016.1 |
| 20260901175054 | 93 | 5 | 3.0 | 9.0 | 0.00 | 0.00 | 0.00 | 60 | 1016.2 |
| 20260901174558 | 92 | 105 | 4.0 | 9.0 | 0.00 | 0.00 | 0.00 | 61 | 1016.2 |
| 20260901174053 | 93 | 38 | 3.0 | 7.0 | 0.00 | 0.00 | 0.00 | 62 | 1016.3 |
| 20260901173553 | 92 | 65 | 2.0 | 7.0 | 0.00 | 0.00 | 0.00 | 62 | 1016.3 |
| 20260901173106 | 93 | 67 | 3.0 | 7.0 | 0.00 | 0.00 | 0.00 | 62 | 1016.2 |
| 20260901172552 | 93 | 94 | 2.0 | 7.0 | 0.00 | 0.00 | 0.00 | 62 | 1016.4 |
| 20260901172056 | 93 | 102 | 3.0 | 7.0 | 0.00 | 0.00 | 0.00 | 61 | 1016.5 |
| 20260901171633 | 93 | 90 | 2.0 | 6.0 | 0.00 | 0.00 | 0.00 | 61 | 1016.5 |
| 20260901171052 | 93 | 0 | 0.0 | 6.0 | 0.00 | 0.00 | 0.00 | 62 | 1016.5 |
| 20260901170553 | 93 | 59 | 2.0 | 6.0 | 0.00 | 0.00 | 0.00 | 62 | 1016.6 |
| 20260901170108 | 93 | 38 | 2.0 | 5.0 | 0.00 | 0.00 | 0.00 | 62 | 1016.6 |
| 20260901165556 | 93 | 203 | 1.0 | 9.0 | 0.00 | 0.00 | 0.00 | 60 | 1016.6 |
| 20260901165056 | 92 | 0 | 3.0 | 9.0 | 0.00 | 0.00 | 0.00 | 61 | 1016.7 |
| 20260901164615 | 92 | 56 | 3.0 | 9.0 | 0.00 | 0.00 | 0.00 | 61 | 1016.7 |
| 20260901164052 | 92 | 86 | 2.0 | 6.0 | 0.00 | 0.00 | 0.00 | 60 | 1016.7 |
| 20260901163554 | 92 | 360 | 3.0 | 5.0 | 0.00 | 0.00 | 0.00 | 62 | 1016.7 |
| 20260901163117 | 92 | 146 | 1.0 | 5.0 | 0.00 | 0.00 | 0.00 | 61 | 1016.9 |
| 20260901162551 | 92 | 184 | 1.0 | 5.0 | 0.00 | 0.00 | 0.00 | 61 | 1017.0 |
| 20260901162053 | 92 | 0 | 0.0 | 8.0 | 0.00 | 0.00 | 0.00 | 61 | 1017.1 |
| 20260901161605 | 92 | 28 | 2.0 | 8.0 | 0.00 | 0.00 | 0.00 | 61 | 1017.1 |
| 20260901161051 | 91 | 32 | 3.0 | 8.0 | 0.00 | 0.00 | 0.00 | 62 | 1017.0 |
| 20260901160555 | 91 | 329 | 1.0 | 9.0 | 0.00 | 0.00 | 0.00 | 63 | 1017.0 |
| 20260901160105 | 91 | 74 | 3.0 | 9.0 | 0.00 | 0.00 | 0.00 | 64 | 1017.1 |
| 20260901155556 | 91 | 304 | 3.0 | 9.0 | 0.00 | 0.00 | 0.00 | 65 | 1017.1 |
| 20260901155055 | 90 | 102 | 2.0 | 10.0 | 0.00 | 0.00 | 0.00 | 65 | 1017.0 |
| 20260901154558 | 90 | 313 | 4.0 | 10.0 | 0.00 | 0.00 | 0.00 | 68 | 1017.1 |